Location: Burland Observatory
(39.4088°N, 105.4217°W)
Time: 12:07:26
(UTC-07:00)

Explorer 7 - Pass Details

Date: 08 December 2019
Orbit: 485 x 679 km, 50.3° (Epoch: 28 January)

Event Time Altitude Azimuth Distance (km) Brightness Sun altitude
Rises 19:03:09 0° 288° (WNW) 3,026 11.6 -27.3°
Reaches altitude 10° 19:05:59 10° 303° (WNW) 2,112 10.4 -27.8°
Enters shadow 19:08:57 21° 339° (NNW) 1,486 9.1 -28.4°
